Time,TemperatureF,DewpointF,PressureIn,WindDirection,WindDirectionDegrees,WindSpeedMPH,WindSpeedGustMPH,Humidity,HourlyPrecipIn,Conditions,Clouds,dailyrainin,SoftwareType,DateUTC
2013-05-07 00:03:00,62.0,49.0,-100.00,ESE,105,3.0,10.0,61,0.00,,,-99.99,,2013-05-07 04:03:00,
2013-05-07 00:12:00,62.0,49.0,-100.00,SE,140,4.0,9.0,62,0.00,,,-99.99,,2013-05-07 04:12:00,
2013-05-07 00:23:00,62.0,49.0,-100.00,East,100,2.0,7.0,62,0.00,,,-99.99,,2013-05-07 04:23:00,
2013-05-07 00:33:00,62.0,49.0,-100.00,ENE,75,2.0,4.0,63,0.00,,,-99.99,,2013-05-07 04:33:00,
2013-05-07 00:42:00,61.0,49.0,-100.00,East,85,2.0,5.0,64,0.00,,,-99.99,,2013-05-07 04:42:00,
2013-05-07 00:53:00,61.0,49.0,-100.00,ESE,105,2.0,6.0,65,0.00,,,-99.99,,2013-05-07 04:53:00,
2013-05-07 01:02:00,60.0,49.0,-100.00,ENE,60,3.0,6.0,66,0.00,,,-99.99,,2013-05-07 05:02:00,
2013-05-07 01:12:00,60.0,49.0,-100.00,ENE,75,3.0,5.0,67,0.00,,,-99.99,,2013-05-07 05:12:00,
2013-05-07 01:22:00,60.0,49.0,-100.00,East,80,3.0,6.0,66,0.00,,,-99.99,,2013-05-07 05:22:00,
2013-05-07 01:32:00,60.0,49.0,-100.00,ENE,65,4.0,6.0,68,0.00,,,-99.99,,2013-05-07 05:32:00,
2013-05-07 01:42:00,59.0,49.0,-100.00,ENE,70,3.0,6.0,69,0.00,,,-99.99,,2013-05-07 05:42:00,
2013-05-07 01:52:00,59.0,49.0,-100.00,ENE,75,2.0,4.0,70,0.00,,,-99.99,,2013-05-07 05:52:00,
2013-05-07 02:02:00,59.0,49.0,-100.00,ENE,65,2.0,6.0,70,0.00,,,-99.99,,2013-05-07 06:02:00,
2013-05-07 02:12:00,59.0,49.0,-100.00,East,90,2.0,6.0,70,0.00,,,-99.99,,2013-05-07 06:12:00,
2013-05-07 02:22:00,59.0,49.0,-100.00,East,85,2.0,5.0,70,0.00,,,-99.99,,2013-05-07 06:22:00,
2013-05-07 02:32:00,59.0,49.0,-100.00,ENE,70,2.0,4.0,70,0.00,,,-99.99,,2013-05-07 06:32:00,
2013-05-07 02:42:00,58.0,49.0,-100.00,ENE,60,2.0,4.0,71,0.00,,,-99.99,,2013-05-07 06:42:00,
2013-05-07 02:52:00,57.0,49.0,-100.00,ENE,65,2.0,6.0,73,0.00,,,-99.99,,2013-05-07 06:52:00,
2013-05-07 03:02:00,57.0,49.0,-100.00,NE,55,1.0,4.0,74,0.00,,,-99.99,,2013-05-07 07:02:00,
2013-05-07 03:11:00,57.0,49.0,-100.00,North,10,1.0,3.0,75,0.00,,,-99.99,,2013-05-07 07:11:00,
2013-05-07 03:22:00,56.0,49.0,-100.00,ENE,60,1.0,2.0,75,0.00,,,-99.99,,2013-05-07 07:22:00,
2013-05-07 03:32:00,57.0,49.0,-100.00,NE,35,1.0,3.0,75,0.00,,,-99.99,,2013-05-07 07:32:00,
2013-05-07 03:42:00,56.0,49.0,-100.00,NNE,25,1.0,2.0,76,0.00,,,-99.99,,2013-05-07 07:42:00,
2013-05-07 03:52:00,56.0,49.0,-100.00,NNE,20,1.0,2.0,76,0.00,,,-99.99,,2013-05-07 07:52:00,
2013-05-07 04:02:00,56.0,49.0,-100.00,NE,45,2.0,3.0,77,0.00,,,-99.99,,2013-05-07 08:02:00,
2013-05-07 04:11:00,56.0,49.0,-100.00,ENE,65,1.0,4.0,76,0.00,,,-99.99,,2013-05-07 08:11:00,
2013-05-07 04:21:00,56.0,49.0,-100.00,NE,45,1.0,5.0,76,0.00,,,-99.99,,2013-05-07 08:21:00,
2013-05-07 04:32:00,56.0,49.0,-100.00,NE,55,2.0,3.0,75,0.00,,,-99.99,,2013-05-07 08:32:00,
2013-05-07 04:42:00,56.0,49.0,-100.00,NE,40,1.0,3.0,77,0.00,,,-99.99,,2013-05-07 08:42:00,
2013-05-07 04:52:00,56.0,49.0,-100.00,NE,40,2.0,3.0,77,0.00,,,-99.99,,2013-05-07 08:52:00,
2013-05-07 05:01:00,56.0,49.0,-100.00,ENE,60,2.0,4.0,77,0.00,,,-99.99,,2013-05-07 09:01:00,
2013-05-07 05:11:00,56.0,49.0,-100.00,ENE,60,2.0,5.0,76,0.00,,,-99.99,,2013-05-07 09:11:00,
2013-05-07 05:22:00,56.0,49.0,-100.00,ENE,65,2.0,4.0,76,0.00,,,-99.99,,2013-05-07 09:22:00,
2013-05-07 05:33:00,55.0,49.0,-100.00,NE,50,3.0,6.0,77,0.00,,,-99.99,,2013-05-07 09:33:00,
2013-05-07 05:42:00,55.0,49.0,-100.00,NE,45,2.0,5.0,78,0.00,,,-99.99,,2013-05-07 09:42:00,
2013-05-07 05:52:00,55.0,49.0,-100.00,NE,45,2.0,4.0,77,0.00,,,-99.99,,2013-05-07 09:52:00,
2013-05-07 06:03:00,55.0,49.0,-100.00,NE,50,2.0,3.0,78,0.00,,,-99.99,,2013-05-07 10:03:00,
2013-05-07 06:12:00,56.0,49.0,-100.00,ENE,60,3.0,6.0,78,0.00,,,-99.99,,2013-05-07 10:12:00,
2013-05-07 06:23:00,55.0,49.0,-100.00,ENE,60,3.0,6.0,78,0.00,,,-99.99,,2013-05-07 10:23:00,
2013-05-07 06:32:00,55.0,49.0,-100.00,NE,40,2.0,6.0,78,0.00,,,-99.99,,2013-05-07 10:32:00,
2013-05-07 06:42:00,55.0,48.0,-100.00,NNE,30,1.0,4.0,79,0.00,,,-99.99,,2013-05-07 10:42:00,
2013-05-07 06:52:00,55.0,49.0,-100.00,NE,40,1.0,9.0,79,0.00,,,-99.99,,2013-05-07 10:52:00,
2013-05-07 07:02:00,55.0,49.0,-100.00,NE,55,3.0,6.0,79,0.00,,,-99.99,,2013-05-07 11:02:00,
2013-05-07 07:12:00,55.0,49.0,-100.00,NE,55,2.0,6.0,78,0.00,,,-99.99,,2013-05-07 11:12:00,
2013-05-07 07:22:00,56.0,49.0,-100.00,NE,50,2.0,7.0,78,0.00,,,-99.99,,2013-05-07 11:22:00,
2013-05-07 07:32:00,56.0,49.0,-100.00,NE,35,2.0,4.0,79,0.00,,,-99.99,,2013-05-07 11:32:00,
2013-05-07 07:42:00,56.0,49.0,-100.00,NE,40,1.0,4.0,78,0.00,,,-99.99,,2013-05-07 11:42:00,
2013-05-07 07:52:00,56.0,49.0,-100.00,NNE,20,1.0,4.0,77,0.00,,,-99.99,,2013-05-07 11:52:00,
2013-05-07 08:02:00,57.0,50.0,-100.00,NE,35,1.0,4.0,77,0.00,,,-99.99,,2013-05-07 12:02:00,
2013-05-07 08:11:00,57.0,50.0,-100.00,NE,45,2.0,4.0,76,0.00,,,-99.99,,2013-05-07 12:11:00,
2013-05-07 08:21:00,57.0,50.0,-100.00,NNE,20,2.0,6.0,76,0.00,,,-99.99,,2013-05-07 12:21:00,
2013-05-07 08:32:00,58.0,50.0,-100.00,NNE,30,1.0,6.0,75,0.00,,,-99.99,,2013-05-07 12:32:00,
2013-05-07 08:42:00,58.0,50.0,-100.00,NE,45,3.0,6.0,75,0.00,,,-99.99,,2013-05-07 12:42:00,
2013-05-07 08:52:00,59.0,51.0,-100.00,NE,55,4.0,6.0,74,0.00,,,-99.99,,2013-05-07 12:52:00,
2013-05-07 09:02:00,59.0,51.0,-100.00,NNE,30,4.0,7.0,73,0.00,,,-99.99,,2013-05-07 13:02:00,
2013-05-07 09:11:00,60.0,51.0,-100.00,NE,40,4.0,7.0,72,0.00,,,-99.99,,2013-05-07 13:11:00,
2013-05-07 09:21:00,61.0,51.0,-100.00,NNE,25,4.0,9.0,70,0.00,,,-99.99,,2013-05-07 13:21:00,
2013-05-07 09:32:00,63.0,52.0,-100.00,NE,45,4.0,8.0,67,0.00,,,-99.99,,2013-05-07 13:32:00,
2013-05-07 09:42:00,62.0,51.0,-100.00,ENE,65,6.0,14.0,66,0.00,,,-99.99,,2013-05-07 13:42:00,
2013-05-07 09:52:00,63.0,51.0,-100.00,ENE,70,6.0,9.0,65,0.00,,,-99.99,,2013-05-07 13:52:00,
2013-05-07 10:02:00,63.0,51.0,-100.00,NE,45,2.0,10.0,65,0.00,,,-99.99,,2013-05-07 14:02:00,
2013-05-07 10:11:00,63.0,51.0,-100.00,NE,55,4.0,12.0,64,0.00,,,-99.99,,2013-05-07 14:11:00,
2013-05-07 10:21:00,64.0,51.0,-100.00,East,85,6.0,10.0,62,0.00,,,-99.99,,2013-05-07 14:21:00,
2013-05-07 10:32:00,64.0,51.0,-100.00,ENE,70,7.0,11.0,62,0.00,,,-99.99,,2013-05-07 14:32:00,
2013-05-07 10:42:00,64.0,51.0,-100.00,NNE,30,7.0,11.0,63,0.00,,,-99.99,,2013-05-07 14:42:00,
2013-05-07 10:52:00,64.0,51.0,-100.00,ENE,65,8.0,12.0,62,0.00,,,-99.99,,2013-05-07 14:52:00,
2013-05-07 11:01:00,64.0,51.0,-100.00,NE,55,6.0,12.0,63,0.00,,,-99.99,,2013-05-07 15:01:00,
2013-05-07 11:12:00,64.0,51.0,-100.00,ENE,65,9.0,16.0,62,0.00,,,-99.99,,2013-05-07 15:12:00,
2013-05-07 11:21:00,65.0,51.0,-100.00,ENE,75,8.0,15.0,59,0.00,,,-99.99,,2013-05-07 15:21:00,
2013-05-07 11:33:00,66.0,50.0,-100.00,East,95,6.0,12.0,56,0.00,,,-99.99,,2013-05-07 15:33:00,
2013-05-07 11:42:00,67.0,51.0,-100.00,NE,45,6.0,11.0,55,0.00,,,-99.99,,2013-05-07 15:42:00,
2013-05-07 11:53:00,67.0,51.0,-100.00,NNE,15,6.0,14.0,57,0.00,,,-99.99,,2013-05-07 15:53:00,
2013-05-07 12:03:00,68.0,51.0,-100.00,ESE,110,5.0,14.0,54,0.00,,,-99.99,,2013-05-07 16:03:00,
2013-05-07 12:12:00,68.0,51.0,-100.00,East,100,4.0,12.0,53,0.00,,,-99.99,,2013-05-07 16:12:00,
2013-05-07 12:22:00,69.0,51.0,-100.00,East,95,5.0,11.0,52,0.00,,,-99.99,,2013-05-07 16:22:00,
2013-05-07 12:32:00,69.0,51.0,-100.00,ENE,65,7.0,12.0,53,0.00,,,-99.99,,2013-05-07 16:32:00,
2013-05-07 12:41:00,70.0,51.0,-100.00,NE,55,4.0,14.0,51,0.00,,,-99.99,,2013-05-07 16:41:00,
2013-05-07 12:51:00,70.0,51.0,-100.00,ESE,120,6.0,12.0,50,0.00,,,-99.99,,2013-05-07 16:51:00,
2013-05-07 13:01:00,70.0,50.0,-100.00,ESE,115,4.0,12.0,49,0.00,,,-99.99,,2013-05-07 17:01:00,
2013-05-07 13:12:00,70.0,50.0,-100.00,ENE,65,6.0,11.0,49,0.00,,,-99.99,,2013-05-07 17:12:00,
2013-05-07 13:21:00,71.0,50.0,-100.00,ESE,115,4.0,17.0,47,0.00,,,-99.99,,2013-05-07 17:21:00,
2013-05-07 13:32:00,71.0,49.0,-100.00,East,80,9.0,18.0,45,0.00,,,-99.99,,2013-05-07 17:32:00,
2013-05-07 13:41:00,71.0,49.0,-100.00,East,95,9.0,13.0,45,0.00,,,-99.99,,2013-05-07 17:41:00,
2013-05-07 13:52:00,71.0,50.0,-100.00,East,80,4.0,12.0,46,0.00,,,-99.99,,2013-05-07 17:52:00,
2013-05-07 14:01:00,72.0,48.0,-100.00,SE,125,7.0,18.0,43,0.00,,,-99.99,,2013-05-07 18:01:00,
2013-05-07 14:11:00,72.0,49.0,-100.00,ENE,65,9.0,14.0,44,0.00,,,-99.99,,2013-05-07 18:11:00,
2013-05-07 14:21:00,72.0,49.0,-100.00,East,90,7.0,14.0,44,0.00,,,-99.99,,2013-05-07 18:21:00,
2013-05-07 14:31:00,73.0,47.0,-100.00,ESE,120,7.0,15.0,39,0.00,,,-99.99,,2013-05-07 18:31:00,
2013-05-07 14:42:00,73.0,47.0,-100.00,ESE,120,6.0,15.0,39,0.00,,,-99.99,,2013-05-07 18:42:00,
2013-05-07 14:51:00,74.0,45.0,-100.00,ENE,70,7.0,15.0,36,0.00,,,-99.99,,2013-05-07 18:51:00,
2013-05-07 15:02:00,75.0,45.0,-100.00,East,85,4.0,12.0,34,0.00,,,-99.99,,2013-05-07 19:02:00,
2013-05-07 15:11:00,74.0,48.0,-100.00,East,100,6.0,13.0,39,0.00,,,-99.99,,2013-05-07 19:11:00,
2013-05-07 15:21:00,74.0,46.0,-100.00,ESE,115,6.0,16.0,36,0.00,,,-99.99,,2013-05-07 19:21:00,
2013-05-07 15:32:00,74.0,46.0,-100.00,ENE,75,6.0,12.0,37,0.00,,,-99.99,,2013-05-07 19:32:00,
2013-05-07 15:42:00,74.0,47.0,-100.00,SE,145,6.0,16.0,38,0.00,,,-99.99,,2013-05-07 19:42:00,
2013-05-07 15:52:00,74.0,48.0,-100.00,SSE,155,4.0,16.0,39,0.00,,,-99.99,,2013-05-07 19:52:00,
2013-05-07 16:02:00,74.0,45.0,-100.00,SE,130,6.0,13.0,35,0.00,,,-99.99,,2013-05-07 20:02:00,
2013-05-07 16:12:00,75.0,45.0,-100.00,SE,145,6.0,14.0,34,0.00,,,-99.99,,2013-05-07 20:12:00,
2013-05-07 16:22:00,74.0,48.0,-100.00,ESE,120,5.0,14.0,39,0.00,,,-99.99,,2013-05-07 20:22:00,
2013-05-07 16:32:00,76.0,48.0,-100.00,SE,145,3.0,11.0,37,0.00,,,-99.99,,2013-05-07 20:32:00,
2013-05-07 16:42:00,75.0,46.0,-100.00,East,95,6.0,18.0,34,0.00,,,-99.99,,2013-05-07 20:42:00,
2013-05-07 16:51:00,74.0,46.0,-100.00,SE,145,10.0,17.0,35,0.00,,,-99.99,,2013-05-07 20:51:00,
2013-05-07 17:01:00,74.0,44.0,-100.00,ENE,65,11.0,16.0,32,0.00,,,-99.99,,2013-05-07 21:01:00,
2013-05-07 17:11:00,73.0,44.0,-100.00,East,95,4.0,14.0,34,0.00,,,-99.99,,2013-05-07 21:11:00,
2013-05-07 17:22:00,73.0,46.0,-100.00,ESE,105,4.0,9.0,37,0.00,,,-99.99,,2013-05-07 21:22:00,
2013-05-07 17:33:00,74.0,47.0,-100.00,East,90,3.0,11.0,38,0.00,,,-99.99,,2013-05-07 21:33:00,
2013-05-07 17:42:00,73.0,47.0,-100.00,ESE,105,4.0,12.0,39,0.00,,,-99.99,,2013-05-07 21:42:00,
2013-05-07 17:52:00,73.0,46.0,-100.00,SE,145,7.0,11.0,38,0.00,,,-99.99,,2013-05-07 21:52:00,
2013-05-07 18:02:00,73.0,46.0,-100.00,East,85,7.0,12.0,39,0.00,,,-99.99,,2013-05-07 22:02:00,
2013-05-07 18:13:00,69.0,51.0,-100.00,ESE,115,6.0,14.0,52,0.00,,,-99.99,,2013-05-07 22:13:00,
2013-05-07 18:22:00,68.0,51.0,-100.00,SSE,150,4.0,12.0,54,0.00,,,-99.99,,2013-05-07 22:22:00,
2013-05-07 18:33:00,68.0,52.0,-100.00,SE,130,2.0,6.0,55,0.00,,,-99.99,,2013-05-07 22:33:00,
2013-05-07 18:42:00,68.0,52.0,-100.00,SE,125,4.0,6.0,55,0.00,,,-99.99,,2013-05-07 22:42:00,
2013-05-07 18:52:00,69.0,52.0,-100.00,SE,130,1.0,5.0,55,0.00,,,-99.99,,2013-05-07 22:52:00,
2013-05-07 19:02:00,69.0,53.0,-100.00,NE,40,1.0,3.0,57,0.00,,,-99.99,,2013-05-07 23:02:00,
2013-05-07 19:12:00,69.0,53.0,-100.00,NE,35,1.0,4.0,56,0.00,,,-99.99,,2013-05-07 23:12:00,
2013-05-07 19:21:00,70.0,51.0,-100.00,NE,35,1.0,3.0,51,0.00,,,-99.99,,2013-05-07 23:21:00,
2013-05-07 19:32:00,70.0,50.0,-100.00,NNE,30,1.0,4.0,49,0.00,,,-99.99,,2013-05-07 23:32:00,
2013-05-07 19:42:00,70.0,51.0,-100.00,NE,35,1.0,5.0,51,0.00,,,-99.99,,2013-05-07 23:42:00,
2013-05-07 19:52:00,70.0,51.0,-100.00,NE,45,1.0,4.0,51,0.00,,,-99.99,,2013-05-07 23:52:00,
2013-05-07 20:02:00,70.0,51.0,-100.00,ENE,65,2.0,6.0,51,0.00,,,-99.99,,2013-05-08 00:02:00,
2013-05-07 20:12:00,70.0,50.0,-100.00,SE,125,1.0,4.0,49,0.00,,,-99.99,,2013-05-08 00:12:00,
2013-05-07 20:22:00,70.0,51.0,-100.00,ESE,115,3.0,7.0,51,0.00,,,-99.99,,2013-05-08 00:22:00,
2013-05-07 20:32:00,69.0,50.0,-100.00,SE,145,7.0,10.0,52,0.00,,,-99.99,,2013-05-08 00:32:00,
2013-05-07 20:42:00,68.0,50.0,-100.00,SSE,150,6.0,12.0,51,0.00,,,-99.99,,2013-05-08 00:42:00,
2013-05-07 20:51:00,68.0,50.0,-100.00,SSE,165,2.0,7.0,53,0.00,,,-99.99,,2013-05-08 00:51:00,
2013-05-07 21:02:00,68.0,51.0,-100.00,SSW,205,0.0,2.0,54,0.00,,,-99.99,,2013-05-08 01:02:00,
2013-05-07 21:11:00,68.0,51.0,-100.00,South,190,1.0,1.0,55,0.00,,,-99.99,,2013-05-08 01:11:00,
2013-05-07 21:22:00,67.0,51.0,-100.00,NE,55,0.0,2.0,57,0.00,,,-99.99,,2013-05-08 01:22:00,
2013-05-07 21:32:00,66.0,51.0,-100.00,North,5,0.0,1.0,58,0.00,,,-99.99,,2013-05-08 01:32:00,
2013-05-07 21:42:00,67.0,51.0,-100.00,NNW,340,0.0,2.0,57,0.00,,,-99.99,,2013-05-08 01:42:00,
2013-05-07 21:52:00,66.0,52.0,-100.00,East,80,1.0,3.0,59,0.00,,,-99.99,,2013-05-08 01:52:00,
2013-05-07 22:02:00,65.0,52.0,-100.00,NE,35,1.0,4.0,63,0.00,,,-99.99,,2013-05-08 02:02:00,
2013-05-07 22:12:00,65.0,51.0,-100.00,North,5,1.0,3.0,60,0.00,,,-99.99,,2013-05-08 02:12:00,
2013-05-07 22:22:00,65.0,52.0,-100.00,North,5,0.0,4.0,62,0.00,,,-99.99,,2013-05-08 02:22:00,
2013-05-07 22:32:00,64.0,52.0,-100.00,NE,45,0.0,3.0,64,0.00,,,-99.99,,2013-05-08 02:32:00,
2013-05-07 22:42:00,64.0,52.0,-100.00,NNW,345,1.0,2.0,65,0.00,,,-99.99,,2013-05-08 02:42:00,
2013-05-07 22:52:00,63.0,52.0,-100.00,North,5,0.0,3.0,66,0.00,,,-99.99,,2013-05-08 02:52:00,
2013-05-07 23:02:00,64.0,52.0,-100.00,NNE,30,0.0,2.0,66,0.00,,,-99.99,,2013-05-08 03:02:00,
2013-05-07 23:11:00,63.0,52.0,-100.00,North,5,0.0,1.0,67,0.00,,,-99.99,,2013-05-08 03:11:00,
2013-05-07 23:21:00,63.0,53.0,-100.00,ESE,120,0.0,3.0,68,0.00,,,-99.99,,2013-05-08 03:21:00,
2013-05-07 23:33:00,62.0,53.0,-100.00,ESE,110,0.0,2.0,70,0.00,,,-99.99,,2013-05-08 03:33:00,
2013-05-07 23:43:00,62.0,53.0,-100.00,ESE,110,0.0,2.0,70,0.00,,,-99.99,,2013-05-08 03:43:00,
2013-05-07 23:52:00,62.0,53.0,-100.00,NE,35,0.0,1.0,72,0.00,,,-99.99,,2013-05-08 03:52:00,